Overview Statistics Trail Chart Weather Telemetry Raw packets
 

This is the latest recevied weather packets stored in our database for station/object AD0YN. If no packets are shown the sender has not sent any weather packets the latest 10 day(s).

<< 3 4 5 6 7 8 9 >>
Time Temp. Humidity Pressure Rain* Wind** Luminosity Snow
1788540341 33.33° C 53% 1014.6 hPa 0 mm - 707 W/m² -
1788540037 33.33° C 52% 1014.9 hPa 0 mm - 702 W/m² -
1788539737 33.33° C 52% 1014.5 hPa 0 mm - 690 W/m² -
1788539433 32.78° C 53% 1014.9 hPa 0 mm - 686 W/m² -
1788539126 32.78° C 54% 1014.7 hPa 0 mm - 672 W/m² -
1788538823 32.78° C 53% 1014.5 hPa 0 mm - 661 W/m² -
1788538522 33.33° C 53% 1014.7 hPa 0 mm - 657 W/m² -
1788538235 32.78° C 54% 1015 hPa 0 mm - 641 W/m² -
1788537913 32.78° C 54% 1014.6 hPa 0 mm - 629 W/m² -
1788537609 32.78° C 55% 1014.7 hPa 0 mm - 618 W/m² -
1788537309 32.22° C 56% 1014.7 hPa 0 mm - 606 W/m² -
1788537008 32.22° C 55% 1014.7 hPa 0 mm - 593 W/m² -
1788536702 32.22° C 56% 1014.4 hPa 0 mm - 581 W/m² -
1788536396 32.22° C 56% 1014.5 hPa 0 mm - 568 W/m² -
1788536091 32.22° C 56% 1014.5 hPa 0 mm - 553 W/m² -
1788535788 31.67° C 56% 1014.5 hPa 0 mm - 542 W/m² -
1788535483 31.67° C 56% 1014.5 hPa 0 mm - 529 W/m² -
1788535183 31.67° C 58% 1014.4 hPa 0 mm - 514 W/m² -
1788534879 31.67° C 57% 1014.5 hPa 0 mm - 502 W/m² -
1788534573 31.67° C 57% 1014.3 hPa 0 mm - 488 W/m² -
1788534268 31.11° C 57% 1014.7 hPa 0 mm - 472 W/m² -
1788533966 31.11° C 58% 1014.6 hPa 0 mm - 460 W/m² -
1788533663 31.11° C 58% 1014.6 hPa 0 mm - 446 W/m² -
1788533358 30.56° C 59% 1014.4 hPa 0 mm - 428 W/m² -
1788533053 30.56° C 61% 1014.7 hPa 0 mm - 413 W/m² -

* Rain latest hour (hover to see other rain measurements)
** Current wind speed in m/s (hover to see current wind gust speed)